Starlink 32230

operational
NORAD ID: 60366 Int'l Des: 2024-138 Owner: SPXS Country: US Constellation: starlink
LEOCIRCULAR

About Starlink 32230

Description loading...

Live Position

Loading 3D Globe...

Upcoming Passes

Altitude History

Altitude vs Time

uPlot chart will show altitude changes over time

Two-Line Element Set

1 60366U 24138M 25354.19235163 -.00001719 00000-0 -45960-4 0 9996
2 60366 53.1631 319.0453 0001624 97.3212 262.7973 15.30181459 78451
Epoch: Dec 20, 2025 • Age: 11 hours

Current Status

Altitude 475.3 km
Velocity 7.63 km/s
Sub-Earth Point 13.17°N, 2.56°E
Launch Date Aug 4, 2024
Age 1.3 years
Type internet

Technical Details

Classification Payload
Mass 730.00 kg
Dry Mass 700.00 kg
Total Mass 730.00 kg
Length 0.30 m
Diameter 4.10 m
Span 29.00 m
Shape Box + pan
Manufacturer SPXS
Bus Type Starlink V2M
Phase Status In Orbit
Owner/State SPXS/US

Large Constellations

Loading constellations...